| time (UTC) | temp F | wind direction | speed MPH | gust MPH | rain 1hr in | rain 24hr in | rain mn in | humidity % | barometer mb |
| 20260504000009 | 47 | 221 | 0.0 | 0.0 | 0.00 | 0.01 | 0.01 | 92 | 1029.1 |
| 20260503234514 | 46 | 219 | 0.0 | 0.0 | 0.00 | 0.01 | 0.01 | 92 | 1029.0 |
| 20260503233006 | 45 | 219 | 0.0 | 0.0 | 0.00 | 0.01 | 0.01 | 92 | 1028.8 |
| 20260503231506 | 43 | 221 | 0.0 | 0.0 | 0.00 | 0.01 | 0.01 | 91 | 1028.6 |
| 20260503230003 | 43 | 221 | 0.0 | 0.0 | 0.00 | 0.01 | 0.01 | 90 | 1028.4 |
| 20260503224502 | 44 | 221 | 0.0 | 0.0 | 0.00 | 0.01 | 0.01 | 90 | 1028.4 |
| 20260503223100 | 44 | 221 | 0.0 | 0.0 | 0.01 | 0.01 | 0.01 | 90 | 1028.4 |
| 20260503221558 | 43 | 221 | 0.0 | 0.0 | 0.01 | 0.01 | 0.01 | 89 | 1028.3 |
| 20260503220055 | 44 | 221 | 0.0 | 0.0 | 0.01 | 0.01 | 0.01 | 88 | 1028.1 |
| 20260503214552 | 44 | 221 | 0.0 | 0.0 | 0.01 | 0.01 | 0.01 | 89 | 1028.0 |
| 20260503213101 | 44 | 221 | 0.0 | 0.0 | 0.00 | 0.00 | 0.00 | 89 | 1028.0 |
| 20260503211550 | 45 | 221 | 0.0 | 0.0 | 0.00 | 0.00 | 0.00 | 87 | 1027.9 |
| 20260503210100 | 46 | 221 | 0.0 | 0.0 | 0.00 | 0.00 | 0.00 | 87 | 1027.8 |
| 20260503204547 | 46 | 221 | 0.0 | 0.0 | 0.00 | 0.00 | 0.00 | 88 | 1027.9 |
| 20260503203052 | 46 | 221 | 0.0 | 0.0 | 0.00 | 0.00 | 0.00 | 88 | 1027.7 |
| 20260503201546 | 46 | 222 | 0.0 | 0.0 | 0.00 | 0.00 | 0.00 | 87 | 1027.7 |
| 20260503200049 | 46 | 222 | 0.0 | 0.0 | 0.00 | 0.00 | 0.00 | 86 | 1027.6 |
| 20260503194544 | 46 | 222 | 0.0 | 0.0 | 0.00 | 0.00 | 0.00 | 86 | 1027.6 |
| 20260503193049 | 46 | 222 | 0.0 | 0.0 | 0.00 | 0.00 | 0.00 | 87 | 1027.6 |
| 20260503191542 | 46 | 222 | 0.0 | 0.0 | 0.00 | 0.00 | 0.00 | 85 | 1027.8 |
| 20260503190047 | 47 | 222 | 1.0 | 3.0 | 0.00 | 0.00 | 0.00 | 84 | 1027.7 |
| 20260503184554 | 46 | 222 | 2.0 | 5.0 | 0.00 | 0.00 | 0.00 | 85 | 1027.9 |
| 20260503183053 | 46 | 222 | 0.0 | 4.0 | 0.00 | 0.00 | 0.00 | 85 | 1027.9 |
| 20260503181538 | 46 | 121 | 0.0 | 0.0 | 0.00 | 0.00 | 0.00 | 84 | 1027.6 |
| 20260503180036 | 46 | 121 | 0.0 | 0.0 | 0.00 | 0.00 | 0.00 | 85 | 1027.6 |
| 20260503174535 | 46 | 121 | 0.0 | 0.0 | 0.00 | 0.00 | 0.00 | 86 | 1027.6 |
| 20260503173033 | 46 | 121 | 0.0 | 0.0 | 0.00 | 0.00 | 0.00 | 85 | 1027.3 |
| 20260503171531 | 45 | 122 | 0.0 | 0.0 | 0.00 | 0.00 | 0.00 | 85 | 1027.4 |
| 20260503081615 | 66 | 115 | 5.0 | 10.0 | 0.00 | 0.00 | 0.00 | 50 | 1024.7 |
| 20260503080103 | 66 | 150 | 4.0 | 8.0 | 0.00 | 0.00 | 0.00 | 50 | 1024.7 |
| 20260503071544 | 66 | 107 | 5.0 | 10.0 | 0.00 | 0.00 | 0.00 | 51 | 1024.9 |
| 20260503054533 | 64 | 22 | 2.0 | 9.0 | 0.00 | 0.00 | 0.00 | 62 | 1025.3 |
| 20260503053032 | 63 | 340 | 1.0 | 6.0 | 0.00 | 0.00 | 0.00 | 63 | 1025.3 |
| 20260503051529 | 64 | 17 | 2.0 | 8.0 | 0.00 | 0.00 | 0.00 | 63 | 1025.4 |
| 20260503050035 | 63 | 63 | 3.0 | 8.0 | 0.00 | 0.00 | 0.00 | 63 | 1025.6 |
| 20260503044524 | 61 | 54 | 2.0 | 6.0 | 0.00 | 0.00 | 0.00 | 66 | 1025.9 |
| 20260503043023 | 61 | 56 | 3.0 | 7.0 | 0.00 | 0.00 | 0.00 | 67 | 1026.2 |
| 20260503041519 | 60 | 150 | 0.0 | 7.0 | 0.00 | 0.00 | 0.00 | 70 | 1026.5 |
| 20260503040016 | 59 | 126 | 2.0 | 7.0 | 0.00 | 0.00 | 0.00 | 71 | 1027.0 |
| 20260503034514 | 59 | 101 | 1.0 | 5.0 | 0.00 | 0.00 | 0.00 | 72 | 1027.1 |
| 20260503033012 | 58 | 107 | 2.0 | 8.0 | 0.00 | 0.00 | 0.00 | 75 | 1027.1 |
| 20260503031507 | 57 | 117 | 4.0 | 8.0 | 0.00 | 0.00 | 0.00 | 77 | 1027.4 |
| 20260503030006 | 56 | 103 | 4.0 | 8.0 | 0.00 | 0.00 | 0.00 | 78 | 1027.5 |
| 20260503024507 | 56 | 107 | 3.0 | 10.0 | 0.00 | 0.00 | 0.00 | 78 | 1027.7 |
| 20260503023003 | 56 | 142 | 4.0 | 10.0 | 0.00 | 0.00 | 0.00 | 78 | 1027.7 |
| 20260503021501 | 56 | 125 | 6.0 | 10.0 | 0.00 | 0.00 | 0.00 | 80 | 1027.8 |
| 20260503020058 | 54 | 107 | 6.0 | 9.0 | 0.00 | 0.00 | 0.00 | 85 | 1027.8 |
| 20260503014559 | 53 | 111 | 1.0 | 4.0 | 0.00 | 0.00 | 0.00 | 88 | 1027.8 |
| 20260503013055 | 51 | 111 | 0.0 | 3.0 | 0.00 | 0.00 | 0.00 | 90 | 1028.0 |
| 20260503011600 | 50 | 111 | 1.0 | 4.0 | 0.00 | 0.00 | 0.00 | 91 | 1028.1 |
| 20260503010053 | 50 | 110 | 1.0 | 4.0 | 0.00 | 0.00 | 0.00 | 91 | 1028.1 |
| 20260503004551 | 50 | 99 | 2.0 | 6.0 | 0.00 | 0.00 | 0.00 | 92 | 1028.1 |
| 20260503003049 | 49 | 111 | 2.0 | 6.0 | 0.00 | 0.00 | 0.00 | 92 | 1027.9 |
| 20260503001559 | 48 | 159 | 3.0 | 8.0 | 0.00 | 0.00 | 0.00 | 92 | 1027.9 |